Edmonton International Airport

Airport
ICAO code: 
CYEG
IATA Code: 
YEG
Summary
ICAO Region: 
NAM
Territory: 
Location: 
Edmonton, Alberta
Serving: 
Edmonton
Elevation: 
2373 ft
Coordinates: 
Aerial View: 
53° 18' 28.926" N, 113° 35' 1.565" W
Metar
Observation
CYEG 251300Z 00000KT 20SM FEW100 BKN220 07/06 A2978 RMK AC1CI6 AC TR SLP098
Station
Edmonton International, Alta.
Date/Time
2022-05-25 13:00:00
Wind direction
Wind speed
00 kts
Lowest cloud amount
few clouds
Temperature
7°C
Dew point
6°C
Humidity
93%
Weather condition
n/a

Description

International airport serving Edmonton, Alberta.

Climatology

Humid Continental climate (Köppen climate classification Dfb) - Variable weather patterns and a large seasonal temperature variance. Summers are often warm and humid with frequent thunderstorms and winters can be very cold with frequent snowfall and persistent snow cover.

Runways

Designator Length Width Surface Rops
12/30 3109 61 ASP Yes/Yes
2/20 3353 61 ASP Yes/Yes
Airport map: 
Aerial View: 

Accidents and Serious Incidents at or in the vicinity of CYEG

SKYbrary Partners:

Safety knowledge contributed by: